Spring Break 300 - 75 Miles

Station: Newcastle - T Race

Distance: 70.523 Miles    

Release: 23-Feb-2021 09:45

Weather Release:    Arrival:

Wind at Release:     Wind at Arrival:

Temp at Release: °    Temp at Arrival: °

Lofts: 128

Birds: 772

Clocked: 639

Released in one group
Drops Pos Breeder Pigeon Name Color Sex Ent Arrival Speed To Win Elg PdAOC
1 House Of Paine - CA 0240-AU20-HOP 727x331 BB H 1 11:29:16.70 1190.278 00:00:00 Yes
2 Zhengloft - MA 0106-IF20-ZHEN BB H 1 11:29:33.60 1187.072 00:00:17 Yes
3 Eastern Pearl Loft - VA 0850-AU20-EPL 🈚️量850 BB H 1 11:29:34.50 1186.901 00:00:18 Yes
4 Balikbayan Express - WA 66638-AU20-ARPU BB H 1 11:29:36.60 1186.504 00:00:20 Yes
5 Nebo Loft - UT 0377-AU20-NEBO RC H 1 11:29:37.40 1186.353 00:00:21 Yes
6 Dong Family Loft - NY 0874-AU20-DMI BC H 1 11:29:39.60 1185.937 00:00:23 Yes
7 Liberty Loft - MA 28986-AU20-FOYS BB H 1 11:29:59.20 1182.247 00:00:43 Yes
8 Mullins Family Loft - CA 24097-AU20-ARPU BB H 1 11:30:03.60 1181.422 00:00:47 Yes
9 Sam Haslem - UT 0140-AU20-SAM BB H 1 11:30:04.30 1181.291 00:00:48 Yes
10 Transilvania Loft - NV 0256-AU20-CFL BB H 1 11:30:06.40 1180.898 00:00:50 Yes
11 Apple Cup - WA 0837-AU20-YAK BC H 1 11:30:13.90 1179.495 00:00:57 Yes
12 Rory Smith - UT 0437-AU20-CDR BBTC H 1 11:30:16.60 1178.991 00:01:00 Yes
13 Power Stroke Loft - MN 0655-AU20-PS BB H 1 11:30:18.20 1178.692 00:01:02 Yes
14 Jimmy Zheng Loft - MS 0063-AU20-JZL BB H 1 11:30:21.40 1178.095 00:01:05 Yes
15 Send An Ace Loft/Bobby Pagdilao - WA 0898-AU20-GSC RC H 1 11:30:23.00 1177.797 00:01:06 Yes
16 Sam Haslem - UT 0139-AU20-SAM BB H 2 11:30:24.50 1177.518 00:01:08 Yes
17 Polson Loft - CO 0071-AU20-PL BB H 1 11:30:26.60 1177.127 00:01:10 Yes
18 Chee Racing Pigeon - MN 32813-AU20-FOYS Treasure Island BBSP C 1 11:30:27.60 1176.941 00:01:11 Yes
19 Lone Peak - UT 0272-AU20-UVI BB H 1 11:30:29.60 1176.569 00:01:13 Yes
20 Unassigned - OR 8875-IF20-SL DCSP 0 1 11:30:30.40 1176.421 00:01:14 Yes
21 Unassigned - OR 30223-AU18-ARPU BLK 0 2 11:30:31.90 1176.142 00:01:15 Yes
22 Slick Hills Loft - UT 51327-AU20-ARPU BC H 1 11:30:33.00 1175.938 00:01:16 Yes
23 Chee Racing Pigeon - MN 0042-AU20-WEYE Honey Man BB C 2 11:30:33.80 1175.789 00:01:17 Yes
24 Liab Family Loft - MN 0709-AU20-LIAB T.S.B. DUNN H 1 11:30:34.20 1175.715 00:01:17 Yes
25 Xfactord - OK 4323-AU20-ARPU Flex RED H 1 11:30:34.90 1175.585 00:01:18 Yes
26 Xfactord - OK 4316-AU20-ARPU Xanadu BB H 2 11:30:38.70 1174.880 00:01:22 Yes
27 Twisted Mitten Loft - MI 1910-AU20-ARPU BB H 1 11:30:39.50 1174.732 00:01:23 Yes
27 Rory Smith - UT 0444-AU20-CDR BB H 2 11:30:39.50 1174.732 00:01:23 Yes
29 Zhengloft - MA 0024-IF20-ZHEN GRIZ H 2 11:30:43.70 1173.954 00:01:27 Yes
30 Desert Rose Lofts - NV 0302-AU20-DRL DCWF H 1 11:30:46.10 1173.510 00:01:29 Yes
31 Rory Smith - UT 0443-AU20-CDR BB H 3 11:30:48.70 1173.030 00:01:32 Yes
32 New Orleans Boys 2 - LA 20291-AU20-MET GRIZ H 1 11:30:52.90 1172.254 00:01:36 Yes
33 Crooked River Challenge - OR 4263-AU20-CORP 1074 x 2201 BB H 1 11:30:55.00 1171.867 00:01:38 Yes
34 Mullins Family Loft - CA 24299-AU20-ARPU BB H 2 11:30:55.30 1171.811 00:01:39 Yes
35 Sam Haslem - UT 0175-AU20-SAM MLY H 3 11:30:56.10 1171.664 00:01:39 Yes
36 Desert Rose Lofts - NV 0388-AU20-DRL BB H 2 11:30:56.40 1171.609 00:01:40 Yes
37 Tim Rizek - NM 20111-AU20-NMRP BB H 1 11:31:00.60 1170.835 00:01:44 Yes
38 Rodriguez Loft - TX 5477-AU20-JEDD BB H 1 11:31:01.50 1170.669 00:01:45 Yes
38 Allen Family Racing - NC 16732-AU20-ARPU DGRZ H 1 11:31:01.50 1170.669 00:01:45 Yes
40 Transilvania Loft - NV 0277-AU20-CFL BCSP H 2 11:31:01.80 1170.614 00:01:45 Yes
41 Mullins Family Loft - CA 23085-AU20-ARPU BB H 3 11:31:07.20 1169.621 00:01:51 Yes
42 Unassigned - OR 22575-AU20-AA BB 0 3 11:31:08.70 1169.346 00:01:52 Yes
43 Cirrcle C Lofts - UT 0363-AU20-DWI RDBR H 1 11:31:15.90 1168.025 00:01:59 Yes
44 Wartick Family Loft - KS 0378-AU20-AC BBWF H 1 11:31:21.50 1167.000 00:02:05 Yes
45 Winghaven Loft - UT 0023-AU20-WING BB H 1 11:31:23.70 1166.598 00:02:07 Yes
46 Nemeth Family Loft - CA 0753-AU20-NEME BBWF H 1 11:31:25.90 1166.196 00:02:09 Yes
47 Flyhome Loft - KY 2047-AU20-FLYH BB H 1 11:31:27.50 1165.904 00:02:11 Yes
48 Ed Kehl - UT 1677-AU20-WGS GRIZ H 1 11:31:29.00 1165.630 00:02:12 Yes
49 Send An Ace Loft/Bobby Pagdilao - WA 0386-AU20-GSC BB H 2 11:31:30.40 1165.375 00:02:14 Yes
50 Send An Ace Loft/Bobby Pagdilao - WA 0387-AU20-GSC BC H 3 11:31:31.90 1165.102 00:02:15 Yes
51 Stelling Loft - NM 0090-AU20-JHS GRIZ H 1 11:31:34.60 1164.610 00:02:18 Yes
52 Jones Boys - UT 2334-AU20-SLI GS4570-6989 INDB H 1 11:31:36.60 1164.245 00:02:20 Yes
53 Boyet And Petes Loft - CA 37022-AU20-JEDD BC H 1 11:31:38.50 1163.900 00:02:22 Yes
54 Keyways - ID 0060-AU20-KEY 1906 x 8508 BC H 1 11:31:40.10 1163.609 00:02:23 Yes
55 Ed Kehl - UT 1670-AU20-WGS DCPD H 2 11:31:42.10 1163.245 00:02:25 Yes
56 A-Lin Loft - MA 13332-AU20-FOYS SLAT H 1 11:31:44.10 1162.882 00:02:27 Yes
57 Red Rock Racing - UT 0902-AU20-DWI FAST GET AWAY BBPD H 1 11:31:47.30 1162.301 00:02:31 Yes
58 Plymouth Peak Pro Challenge - UT 39303-AU20-AA BB H 1 11:31:48.90 1162.011 00:02:32 Yes
59 Winghaven Loft - UT 0006-AU20-WING BBWF H 2 11:31:50.30 1161.757 00:02:34 Yes
60 Trapper Bob Loft - MO 85908-AU20-ARPU BCSP H 1 11:31:52.60 1161.341 00:02:36 Yes
61 Robinson/ Lawrence - UT 2453-AU20-WFA BB H 1 11:31:54.00 1161.087 00:02:37 Yes
62 Dan, Sheri & The Garfield Boys - UT 0937-AU20-CDR The Passion 9468 GRIZ H 1 11:32:00.00 1160.002 00:02:43 Yes
63 Rusty Wings - UT 0755-AU20-PS BB 0 1 11:32:01.80 1159.677 00:02:45 Yes
64 Filipino-American Pigeon Fanciers Alliance - IL 0035-AU20-NIX DC H 1 11:32:03.90 1159.298 00:02:47 Yes
65 Allen Family Racing - NC 16728-AU20-ARPU BB H 2 11:32:05.70 1158.973 00:02:49 Yes
66 Nebo Loft - UT 0164-AU20-NEBO BC H 2 11:32:07.60 1158.630 00:02:51 Yes
67 Thunder Birds Breeding Loft - TX 20193-AU20-WIN Twister BB H 1 11:32:10.00 1158.198 00:02:53 Yes
68 M & M Blake - UT 0371-AU20-BB BC H 1 11:32:13.10 1157.640 00:02:56 Yes
69 Flyhome Loft - KY 2062-AU20-FLYH BB H 2 11:32:15.00 1157.298 00:02:58 Yes
70 Campbell & Blake - UT 0905-AU20-DWI FLORA BB H 1 11:32:17.00 1156.938 00:03:00 Yes
71 Rory Smith - UT 0456-AU20-CDR BB H 4 11:32:19.40 1156.507 00:03:03 Yes
72 Sherwood Loft - UT 0495-AU20-UCA BB H 1 11:32:41.00 1152.641 00:03:24 Yes
73 Mullins Family Loft - CA 24165-AU20-ARPU BB H 4 11:32:46.50 1151.660 00:03:30 Yes
74 Mountain View Loft 2 - UT 0861-AU20-CDR BBTC H 1 11:32:48.60 1151.287 00:03:32 Yes
75 Mountain View Loft 2 - UT 0852-AU20-CDR GRIZ H 2 11:32:51.60 1150.753 00:03:35 Yes
76 Sam Haslem - UT 0159-AU20-SAM BB H 4 11:32:53.40 1150.433 00:03:37 Yes
77 Dong Family Loft - NY 0869-AU20-DMI BB H 2 11:32:56.50 1149.882 00:03:40 Yes
78 David Miller - UT 0396-AU20-CDR SILV H 1 11:32:59.10 1149.421 00:03:42 Yes
79 Youngblood Loft - UT 0452-AU20-NEBO Live Wire BCWF H 1 11:33:03.30 1148.676 00:03:47 Yes
80 South Park One - UT 0940-AU20-CDR Kenny WG H 1 11:33:05.30 1148.322 00:03:49 Yes
81 Plymouth Peak Pro Challenge - UT 0437-AU20-HL BC H 2 11:33:06.60 1148.092 00:03:50 Yes
82 Alca Loft - IL 3449-AU20-ALCA Come to Papa DCSP H 1 11:33:09.60 1147.561 00:03:53 Yes
83 Rory Smith - UT 0442-AU20-CDR BB H 5 11:33:11.50 1147.225 00:03:55 Yes
84 Lazy A C Loft - IN 0786-AU20-LAZY BBPN H 1 11:33:13.00 1146.960 00:03:56 Yes
85 Lone Peak - UT 0270-AU20-UVI BB H 2 11:33:17.10 1146.236 00:04:00 Yes
86 Serrano Brothers Loft - FL 59029-AU20-VLAD BB H 1 11:33:18.00 1146.078 00:04:01 Yes
87 Ed Kehl - UT 1673-AU20-WGS BB H 3 11:33:19.40 1145.831 00:04:03 Yes
88 Bob Bostwick - CA 0027-AU20-COCO BB H 1 11:33:22.10 1145.355 00:04:05 Yes
89 Desert Rose Lofts - NV 0346-AU20-DRL BB H 3 11:33:24.00 1145.020 00:04:07 Yes
90 Journeys End - MI 0192-IF20-VDB BBWF H 1 11:33:25.40 1144.774 00:04:09 Yes
91 Lazy A C Loft - IN 0805-AU20-LAZY BB H 2 11:33:27.60 1144.387 00:04:11 Yes
92 Dan, Sheri & The Garfield Boys - UT 0932-AU20-CDR Heartless 8624-493 BBWF H 2 11:33:31.60 1143.684 00:04:15 Yes
93 Golden Pigeon Boys - CA 6017-AU20-BON O Silver SILV H 1 11:33:34.00 1143.263 00:04:17 Yes
94 Dan, Sheri & The Garfield Boys - UT 0935-AU20-CDR So Will I 1633-450 GRIZ H 3 11:33:36.00 1142.912 00:04:19 Yes
95 Lawrence Cummins - UT 0265-AU20-DWI BB H 1 11:33:36.30 1142.859 00:04:20 Yes
96 Mullins Family Loft - CA 23096-AU20-ARPU BBWF H 5 11:33:38.70 1142.438 00:04:22 Yes
97 Jimmy Zheng Loft - MS 0119-AU20-JZL BC H 2 11:33:40.70 1142.088 00:04:24 Yes
98 Gomez Loft - CA 3921-AU20-CHP BC H 1 11:33:42.90 1141.703 00:04:26 Yes
99 A-Lin Loft - MA 13336-AU20-FOYS BBSP H 2 11:33:45.60 1141.230 00:04:29 Yes
100 Big Sky Syndicate - MT 4424-AU20-JEDD BB H 1 11:33:49.40 1140.566 00:04:33 Yes

There are 639 bird records

Note: These Race Results are unofficial and subject to change until verified by the Race Committee and declared final.